EW3861 Weather Reports


time (UTC)temp
C
wind
direction
speed
KPH
gust
KPH
rain 1hr
cm
rain 24hr
cm
rain mn
cm
humidity
%
barometer
mb
20260905053043 15 73 0.0 0.0 0.00 0.00 0.00 91 1007.7
20260905051542 15 73 0.0 0.0 0.00 0.00 0.00 91 1007.7
20260905050043 16 73 0.0 0.0 0.00 0.00 0.00 91 1007.9
20260905044533 16 73 0.0 0.0 0.00 0.00 0.00 91 1007.7
20260905043033 16 73 0.0 0.0 0.00 0.00 0.00 91 1007.7
20260905041530 16 73 0.0 0.0 0.00 0.00 0.00 91 1007.8
20260905040028 16 73 0.0 0.0 0.00 0.00 0.00 91 1007.8
20260905034536 16 73 0.0 0.0 0.00 0.00 0.00 90 1007.7
20260905033028 17 73 0.0 0.0 0.00 0.00 0.00 89 1007.6
20260905031527 17 73 0.0 0.0 0.00 0.00 0.00 89 1007.6
20260905030033 17 73 0.0 0.0 0.00 0.00 0.00 89 1007.6
20260905024526 17 73 0.0 0.0 0.00 0.00 0.00 88 1007.6
20260905023032 17 73 0.0 0.0 0.00 0.00 0.00 88 1007.6
20260905021524 18 73 0.0 0.0 0.00 0.00 0.00 87 1007.6
20260905020027 18 73 0.0 0.0 0.00 0.00 0.00 87 1007.8
20260905014523 18 73 0.0 0.0 0.00 0.00 0.00 85 1008.0
20260905013025 19 73 0.0 0.0 0.00 0.00 0.00 84 1008.1
20260905011522 20 73 0.0 0.0 0.00 0.00 0.00 83 1008.1
20260905010023 20 73 0.0 0.0 0.00 0.00 0.00 82 1008.1
20260905004521 20 73 0.0 0.0 0.00 0.00 0.00 81 1008.0
20260905003021 21 73 0.0 0.0 0.00 0.00 0.00 80 1007.9
20260905001521 21 73 0.0 0.0 0.00 0.00 0.00 77 1007.8
20260905000023 22 73 0.0 0.0 0.00 0.00 0.00 76 1007.6
20260904234534 22 73 0.0 0.0 0.00 0.00 0.00 73 1007.5
20260904233020 23 73 0.0 0.0 0.00 0.00 0.00 71 1007.3
20260904231519 23 73 0.0 0.0 0.00 0.00 0.00 69 1007.2
20260904230018 24 73 0.0 0.0 0.00 0.00 0.00 68 1007.0
20260904224518 25 73 0.0 0.0 0.00 0.00 0.00 66 1007.0
20260904223017 25 73 0.0 0.0 0.00 0.00 0.00 65 1007.0
20260904221517 26 73 0.0 0.0 0.00 0.00 0.00 62 1006.9
20260904220016 26 86 0.0 0.0 0.00 0.00 0.00 60 1006.8
20260904214515 26 86 0.0 0.0 0.00 0.00 0.00 60 1006.9
20260904213015 27 82 0.0 0.0 0.00 0.00 0.00 57 1006.9
20260904211514 27 82 0.0 0.0 0.00 0.00 0.00 53 1006.8
20260904210015 28 33 0.0 0.0 0.00 0.00 0.00 51 1006.8
20260904204514 28 244 0.0 0.0 0.00 0.00 0.00 48 1006.7
20260904203013 28 194 0.0 0.0 0.00 0.00 0.00 52 1006.9
20260904201512 28 196 0.0 0.0 0.00 0.00 0.00 48 1006.9
20260904200014 28 317 0.0 0.0 0.00 0.00 0.00 50 1006.8
20260904194509 28 93 0.0 0.0 0.00 0.00 0.00 53 1006.7
20260904193010 28 109 0.0 0.0 0.00 0.00 0.00 53 1006.6
20260904191507 28 224 0.0 0.0 0.00 0.00 0.00 53 1006.7
20260904190104 28 190 0.0 0.0 0.00 0.00 0.00 53 1007.0
20260904184501 28 105 0.0 0.0 0.00 0.00 0.00 58 1007.0
20260904183057 27 276 0.0 0.0 0.00 0.00 0.00 61 1007.1
20260904181556 26 96 0.0 0.0 0.00 0.00 0.00 63 1007.1
20260904180057 27 96 0.0 0.0 0.00 0.00 0.00 64 1007.1
20260904174555 27 81 0.0 0.0 0.00 0.00 0.00 61 1007.1
20260904173056 27 184 0.0 0.0 0.00 0.00 0.00 63 1007.2
20260904171558 26 171 0.0 0.0 0.00 0.00 0.00 65 1007.3
20260904170051 26 113 0.0 0.0 0.00 0.00 0.00 66 1007.3
20260904164543 25 41 0.0 0.0 0.00 0.00 0.00 68 1007.4
20260904163042 25 223 0.0 0.0 0.00 0.00 0.00 70 1007.6
20260904161539 25 92 0.0 0.0 0.00 0.00 0.00 70 1007.7
20260904160048 25 228 0.0 0.0 0.00 0.00 0.00 72 1007.9
20260904154536 24 109 0.0 0.0 0.00 0.00 0.00 73 1008.0
20260904153029 23 102 0.0 0.0 0.00 0.00 0.00 77 1008.0
20260904151528 23 254 0.0 0.0 0.00 0.00 0.00 80 1008.1
20260904150038 22 254 0.0 0.0 0.00 0.00 0.00 83 1008.1
20260904144518 22 150 0.0 0.0 0.00 0.00 0.00 88 1008.3
20260904143014 21 110 0.0 0.0 0.00 0.00 0.00 93 1008.4
20260904141521 20 194 0.0 0.0 0.00 0.00 0.00 97 1008.5
20260904140012 20 182 0.0 0.0 0.00 0.00 0.00 98 1008.4
20260904134508 20 176 0.0 0.0 0.00 0.00 0.00 98 1008.5
20260904133008 20 177 0.0 0.0 0.00 0.00 0.00 98 1008.5
20260904131507 20 188 0.0 0.0 0.00 0.00 0.00 98 1008.4
20260904130005 19 297 0.0 0.0 0.00 0.00 0.00 98 1008.6
20260904124502 18 297 0.0 0.0 0.00 0.00 0.00 99 1008.6
20260904123101 18 297 0.0 0.0 0.00 0.00 0.00 98 1008.6
20260904121600 17 297 0.0 0.0 0.00 0.00 0.00 98 1008.5
20260904120059 16 297 0.0 0.0 0.00 0.00 0.00 97 1008.6
20260904114559 16 297 0.0 0.0 0.00 0.00 0.00 97 1008.6
20260904113059 16 297 0.0 0.0 0.00 0.00 0.00 97 1008.6
20260904111557 16 297 0.0 0.0 0.00 0.00 0.00 97 1008.6
20260904110057 16 297 0.0 0.0 0.00 0.00 0.00 97 1008.6
20260904104559 16 297 0.0 0.0 0.00 0.00 0.00 97 1008.6
20260904103055 16 297 0.0 0.0 0.00 0.00 0.00 97 1008.5
20260904101554 16 297 0.0 0.0 0.00 0.00 0.00 97 1008.3
20260904100104 17 297 0.0 0.0 0.00 0.00 0.00 97 1008.2
20260904094552 17 297 0.0 0.0 0.00 0.00 0.00 97 1008.2
20260904093055 17 297 0.0 0.0 0.00 0.00 0.00 97 1008.2
20260904091551 17 297 0.0 0.0 0.00 0.00 0.00 97 1008.2
20260904090054 17 297 0.0 0.0 0.00 0.00 0.00 97 1008.1
20260904084550 17 297 0.0 0.0 0.00 0.00 0.00 97 1008.0
20260904083048 17 297 0.0 0.0 0.00 0.00 0.00 96 1008.2
20260904081547 17 297 0.0 0.0 0.00 0.00 0.00 96 1008.4
20260904080049 17 297 0.0 0.0 0.00 0.00 0.00 96 1008.3
20260904074550 17 297 0.0 0.0 0.00 0.00 0.00 96 1008.5
20260904073042 17 297 0.0 0.0 0.00 0.00 0.00 96 1008.8
20260904071541 17 297 0.0 0.0 0.00 0.00 0.00 96 1008.9
20260904070040 17 297 0.0 0.0 0.00 0.00 0.00 96 1008.9
20260904064538 17 297 0.0 0.0 0.00 0.00 0.00 96 1008.9
20260904063041 17 297 0.0 0.0 0.00 0.00 0.00 96 1009.0
20260904061536 17 297 0.0 0.0 0.00 0.00 0.00 96 1009.1
20260904060036 17 297 0.0 0.0 0.00 0.00 0.00 96 1009.2
20260904054532 17 297 0.0 0.0 0.00 0.00 0.00 96 1009.3